This is the latest recevied weather packets stored in our database for station/object KN6WGU. If no packets are shown the sender has not sent any weather packets the latest 10 day(s).
| Time | Temp. | Humidity | Pressure | Rain* | Wind** | Luminosity | Snow |
|---|---|---|---|---|---|---|---|
| 1788298849 | 30.56° C | 66% | 1008.4 hPa | 0 mm | - | 95 W/m² | - |
| 1788298544 | 31.11° C | 66% | 1008.6 hPa | 0 mm | - | 132 W/m² | - |
| 1788298243 | 30.56° C | 66% | 1008.6 hPa | 0 mm | - | 153 W/m² | - |
| 1788297938 | 30.56° C | 66% | 1008.5 hPa | 0 mm | - | 154 W/m² | - |
| 1788297635 | 31.11° C | 65% | 1008.6 hPa | 0 mm | - | 110 W/m² | - |
| 1788297335 | 31.11° C | 68% | 1008.3 hPa | 0 mm | - | 139 W/m² | - |
| 1788297031 | 31.11° C | 69% | 1008.3 hPa | 0 mm | - | 143 W/m² | - |
| 1788296726 | 31.11° C | 69% | 1008.4 hPa | 0 mm | - | 186 W/m² | - |
| 1788296422 | 31.11° C | 68% | 1008.3 hPa | 0 mm | - | 159 W/m² | - |
| 1788296117 | 31.11° C | 67% | 1008.3 hPa | 0 mm | - | 150 W/m² | - |
| 1788295812 | 32.22° C | 65% | 1008.3 hPa | 0 mm | - | 161 W/m² | - |
| 1788295509 | 32.78° C | 67% | 1008.3 hPa | 0 mm | - | 192 W/m² | - |
| 1788295209 | 32.22° C | 66% | 1008.2 hPa | 0 mm | - | 156 W/m² | - |
| 1788294903 | 31.67° C | 69% | 1008.3 hPa | 0 mm | - | 433 W/m² | - |
| 1788294598 | 31.67° C | 67% | 1008.3 hPa | 0 mm | - | 235 W/m² | - |
| 1788294293 | 31.67° C | 68% | 1008.5 hPa | 0 mm | - | 454 W/m² | - |
| 1788293989 | 31.67° C | 69% | 1008.5 hPa | 0 mm | - | 159 W/m² | - |
| 1788293684 | 30.56° C | 70% | 1008.4 hPa | 0 mm | - | 436 W/m² | - |
| 1788293384 | 30.56° C | 70% | 1008.5 hPa | 0 mm | - | 200 W/m² | - |
| 1788293073 | 30.56° C | 71% | 1008.4 hPa | 0 mm | - | 164 W/m² | - |
| 1788292772 | 31.11° C | 70% | 1008.4 hPa | 0 mm | - | 197 W/m² | - |
| 1788292471 | 31.11° C | 70% | 1008.5 hPa | 0 mm | - | 310 W/m² | - |
| 1788292165 | 31.11° C | 70% | 1008.4 hPa | 0 mm | - | 292 W/m² | - |
| 1788291860 | 32.22° C | 67% | 1008.4 hPa | 0 mm | - | 257 W/m² | - |
| 1788291556 | 32.22° C | 66% | 1008.6 hPa | 0 mm | - | 512 W/m² | - |
* Rain latest hour (hover to see other rain measurements)
** Current wind speed in m/s (hover to see current wind gust speed)